Duvenstedt, Germany

2:07 PM CEST on August 17, 2017 (GMT +0200)
Duvenstedt

Weather History for 10147 - August, 2013

Change the Weather History Date:

Wednesday, August 21, 2013

  Actual Average Record
Temperature  
Mean Temperature 60 °F -  
Max Temperature 71 °F 66 °F - ()
Min Temperature 49 °F 50 °F - ()
Degree Days  
Heating Degree Days 5    
Growing Degree Days 10 (Base 50)    
Moisture  
Dew Point 52 °F    
Average Humidity 74    
Maximum Humidity 100    
Minimum Humidity 33    
Precipitation  
Precipitation 0.00 in 0.09 in - ()
Sea Level Pressure  
Sea Level Pressure 30.29 in    
Wind  
Wind Speed 3 mph ()    
Max Wind Speed 10 mph    
Max Gust Speed -    
Visibility 8.6 miles    
Events Fog , Rain    
T = Trace of Precipitation, MM = Missing Value Source: Averaged Metar Reports

Daily Weather History Graph

Daily Weather History Graph

Search for Another Location

Airport or City:

Trip Planner

Search our weather history database for the weather conditions in past years. The results will help you decide how hot, cold, wet, or windy it might be!

Date:

Astronomy

Aug. 21, 2013 Rise Set
Actual Time 6:09 AM CEST 8:35 PM CEST
Civil Twilight 5:30 AM CEST 9:13 PM CEST
Nautical Twilight 4:41 AM CEST 10:03 PM CEST
Astronomical Twilight 3:41 AM CEST 11:02 PM CEST
Moon 8:16 PM CEST (8/21) 6:42 AM CEST (8/21)
Length of Visible Light 15h 43m
Length of Day
14h 25m
Full, 100% of the Moon is Illuminated
Aug 21
Full
Aug 28
Last Quarter
Sep 5
New
Sep 12
First Quarter
Sep 19
Full

Hourly Weather History & Observations

Time (CEST) Temp. Dew Point Humidity Pressure Visibility Wind Dir Wind Speed Gust Speed Precip Events Conditions
12:00 AM 53 °F 52 °F 94% 30.35 in 12 mi Calm Calm - - Fog Light Fog
12:20 AM 53.6 °F 51.8 °F 94% 30.33 in 6.2 mi Variable 1.2 mph - N/A Fog Patches of Fog
12:50 AM 51.8 °F 51.8 °F 100% 30.33 in 6.2 mi Variable 1.2 mph - N/A Fog Patches of Fog
1:00 AM 52 °F 51 °F 95% 30.36 in 12 mi SSE 2.2 mph - - Fog Light Fog
1:20 AM 53.6 °F 51.8 °F 94% 30.33 in 6.2 mi Variable 1.2 mph - N/A Fog Shallow Fog
1:50 AM 51.8 °F 51.8 °F 100% 30.33 in - Variable 2.3 mph - N/A   Clear
2:00 AM 52 °F 51 °F 95% 30.35 in 9 mi SSW 2.2 mph - -   Mostly Cloudy
2:20 AM 53.6 °F 51.8 °F 94% 30.33 in - SW 3.5 mph - N/A   Clear
2:50 AM 55.4 °F 51.8 °F 88% 30.33 in - WSW 3.5 mph - N/A   Clear
3:00 AM 55 °F 52 °F 87% 30.35 in 9 mi WSW 2.2 mph - -   Mostly Cloudy
3:20 AM 53.6 °F 51.8 °F 94% 30.33 in - SW 3.5 mph - N/A   Clear
3:50 AM 51.8 °F 50.0 °F 94% 30.33 in - Variable 1.2 mph - N/A   Unknown
4:00 AM 53 °F 51 °F 90% 30.34 in 9 mi SW 2.2 mph - - Fog Light Fog
4:20 AM 51.8 °F 50.0 °F 94% 30.33 in 6.2 mi Variable 1.2 mph - N/A Fog Patches of Fog
4:50 AM 51.8 °F 50.0 °F 94% 30.33 in 6.2 mi Variable 1.2 mph - N/A Fog Patches of Fog
5:20 AM 50.0 °F 50.0 °F 100% 30.33 in 6.2 mi Variable 1.2 mph - N/A Fog Patches of Fog
5:50 AM 50.0 °F 48.2 °F 94% 30.33 in 6.2 mi WSW 1.2 mph - N/A Fog Patches of Fog
6:20 AM 50.0 °F 50.0 °F 100% 30.30 in 6.2 mi Variable 1.2 mph - N/A Fog Patches of Fog
6:50 AM 50.0 °F 50.0 °F 100% 30.33 in 6.2 mi Calm Calm - N/A Fog Patches of Fog
7:00 AM 50 °F 49 °F 96% 30.34 in 6 mi Calm Calm - - Fog Light Fog
7:20 AM 51.8 °F 50.0 °F 94% 30.33 in 6.2 mi Variable 1.2 mph - N/A Fog Patches of Fog
7:50 AM 53.6 °F 53.6 °F 100% 30.33 in 6.2 mi Variable 2.3 mph - N/A Fog Shallow Fog
8:00 AM 54 °F 53 °F 96% 30.34 in 9 mi South 2.2 mph - - Fog Patches of Fog
8:20 AM 55.4 °F 55.4 °F 100% 30.33 in - Variable 1.2 mph - N/A   Clear
8:50 AM 59.0 °F 55.4 °F 88% 30.33 in - Variable 1.2 mph - N/A   Clear
9:00 AM 58 °F 55 °F 86% 30.34 in 11 mi SSW 2.2 mph - -   Clear
9:20 AM 60.8 °F 53.6 °F 77% 30.33 in - Variable 2.3 mph - N/A   Clear
9:50 AM 62.6 °F 55.4 °F 77% 30.33 in - SW 4.6 mph - N/A   Clear
10:00 AM 63 °F 54 °F 66% 30.34 in 11 mi SW 4.5 mph - -   Clear
10:20 AM 64.4 °F 53.6 °F 68% 30.33 in - SSW 5.8 mph - N/A   Clear
10:50 AM 66.2 °F 51.8 °F 60% 30.33 in 6.2 mi SW 8.1 mph - N/A   Scattered Clouds
11:20 AM 66.2 °F 51.8 °F 60% 30.33 in 6.2 mi WSW 9.2 mph - N/A   Scattered Clouds
11:50 AM 68.0 °F 51.8 °F 56% 30.30 in 6.2 mi WSW 9.2 mph - N/A   Scattered Clouds
12:00 PM 67 °F 51 °F 46% 30.33 in 12 mi WSW 8.9 mph - -   Scattered Clouds
12:20 PM 66.2 °F 50.0 °F 56% 30.30 in 6.2 mi WSW 8.1 mph - N/A   Scattered Clouds
12:50 PM 66.2 °F 50.0 °F 56% 30.30 in 6.2 mi SW 9.2 mph - N/A   Scattered Clouds
1:00 PM 67 °F 49 °F 43% 30.32 in 12 mi SW 8.9 mph - -   Partly Cloudy
1:20 PM 68.0 °F 51.8 °F 56% 30.30 in 6.2 mi WNW 10.4 mph - N/A   Scattered Clouds
1:50 PM 68.0 °F 48.2 °F 49% 30.30 in 6.2 mi West 5.8 mph - N/A   Partly Cloudy
2:00 PM 67 °F 48 °F 39% 30.31 in 12 mi West 4.5 mph - - Rain Light Rain
2:20 PM 68.0 °F 50.0 °F 52% 30.30 in 6.2 mi West 8.1 mph - N/A   Partly Cloudy
2:50 PM 69.8 °F 50.0 °F 49% 30.27 in 6.2 mi West 5.8 mph - N/A   Scattered Clouds
3:00 PM 69 °F 50 °F 39% 30.29 in 12 mi West 4.5 mph - -   Scattered Clouds
3:20 PM 69.8 °F 50.0 °F 49% 30.27 in 6.2 mi West 5.8 mph - N/A   Partly Cloudy
3:50 PM 69.8 °F 48.2 °F 46% 30.27 in 6.2 mi Variable 4.6 mph - N/A   Partly Cloudy
4:00 PM 70 °F 47 °F 33% 30.27 in 12 mi West 4.5 mph - -   Scattered Clouds
4:20 PM 71.6 °F 50.0 °F 46% 30.24 in - WSW 5.8 mph - N/A   Clear
4:50 PM 69.8 °F 48.2 °F 46% 30.24 in - WSW 6.9 mph - N/A   Clear
5:20 PM 69.8 °F 50.0 °F 49% 30.24 in - WSW 4.6 mph - N/A   Clear
5:50 PM 69.8 °F 50.0 °F 49% 30.24 in - West 4.6 mph - N/A   Clear
6:20 PM 69.8 °F 48.2 °F 46% 30.24 in - West 4.6 mph - N/A   Partly Cloudy
6:50 PM 69.8 °F 50.0 °F 49% 30.24 in - WSW 3.5 mph - N/A   Clear
7:00 PM 69 °F 50 °F 40% 30.25 in 16 mi WSW 4.5 mph - -   Scattered Clouds
7:20 PM 66.2 °F 51.8 °F 60% 30.24 in - WNW 3.5 mph - N/A   Clear
7:50 PM 66.2 °F 53.6 °F 64% 30.21 in - NW 3.5 mph - N/A   Clear
8:00 PM 65 °F 53 °F 56% 30.24 in 19 mi NW 2.2 mph - -   Partly Cloudy
8:20 PM 62.6 °F 53.6 °F 72% 30.21 in - Variable 2.3 mph - N/A   Clear
8:50 PM 60.8 °F 55.4 °F 82% 30.24 in - NNW 2.3 mph - N/A   Clear
9:00 PM 62 °F 55 °F 71% 30.25 in 16 mi NNW 2.2 mph - -   Scattered Clouds
9:20 PM 60.8 °F 55.4 °F 82% 30.21 in - Variable 1.2 mph - N/A   Clear
9:50 PM 59.0 °F 53.6 °F 82% 30.21 in - ENE 2.3 mph - N/A   Clear
10:20 PM 57.2 °F 55.4 °F 94% 30.21 in - ENE 2.3 mph - N/A   Clear
10:50 PM 57.2 °F 55.4 °F 94% 30.21 in - ENE 2.3 mph - N/A   Clear
11:20 PM 57.2 °F 55.4 °F 94% 30.21 in - Variable 2.3 mph - N/A   Clear
11:50 PM 55.4 °F 53.6 °F 94% 30.21 in - Variable 1.2 mph - N/A   Clear